Hawk 6A

operational
NORAD ID: 55327 Int'l Des: 2023-011 Owner: HE360 Country: US
LEOCIRCULAR

关于 Hawk 6A

正在加载描述...

实时位置

正在加载3D地球...

即将过境

高度历史

Altitude vs Time

uPlot chart will show altitude changes over time

两行轨道根数

1 55327U 23011D 26062.50399923 .00007790 00000-0 34412-3 0 9995
2 55327 40.4969 246.4756 0003094 330.5100 29.5534 15.21800202171747
Epoch: Mar 3, 2026 • Age: 29 hours

当前状态

高度 511.4 km
速度 7.61 km/s
星下点 -40.53°S, 80.03°W
发射日期 Jan 24, 2023
运行时间 3.1 years
类型 other

技术详情

分类 Payload
质量 31.00 kg
干质量 30.00 kg
总质量 31.00 kg
长度 0.45 m
直径 0.30 m
跨度 1.00 m
形状 Box + 2 pan
制造商 UTIAS
平台类型 Hawk2G
阶段状态 In Orbit
所有者/国家 HE360/US

大型星座

Loading constellations...